Regional Weather Roundup
Issued by NWS

Home | Current Version | Previous Version | Graphics & Text | Print | Product List | Glossary On
Versions: 1 2 3 4 5 6 7 8 9 10 11 12 13 14 15 16 17 18 19 20 21 22 23 24 25 26 27 28 29 30 31 32 33 34 35 36 37 38 39 40 41 42 43 44 45 46 47 48 49 50
000
ASUS44 KMEG 282310
RWRTN
TENNESSEE HOURLY STATE WEATHER ROUNDUP
NATIONAL WEATHER SERVICE MEMPHIS TN
600 PM CDT THU APR 28 2016

TNZ002-004-019-021-049-052-054-088>092-290000-
WEST TENNESSEE

CITY           SKY/WX    TMP DP  RH WIND       PRES   REMARKS
MEMPHIS INTL   MOSUNNY   83  49  30 NW3       29.93S
NWS MEMPHIS      N/A     86 N/A N/A MISG        N/A
JACKSON        SUNNY     81  50  33 W6        29.93R
DYERSBURG      SUNNY     82  46  28 SW8       29.93S
UNION CITY     SUNNY     81  45  28 W9        29.92R
LEXINGTON      SUNNY     81  50  34 W6        29.93R
$$

TNZ008-025-027-028-033-062-065-066-290000-
NORTH MIDDLE TENNESSEE

CITY           SKY/WX    TMP DP  RH WIND       PRES   REMARKS
NASHVILLE      MOSUNNY   82  52  35 W8        29.92R
CLARKSVILLE    SUNNY     78  50  37 W8        29.91R
SMYRNA         SUNNY     83  52  34 W13       29.92R
COOKEVILLE     SUNNY     82  61  47 W3        29.91R
CROSSVILLE     MOSUNNY   75  55  49 W7        29.96R
$$

TNZ061-075-076-078-094-096-097-290000-
SOUTH MIDDLE TENNESSEE

CITY           SKY/WX    TMP DP  RH WIND       PRES   REMARKS
FAYETTEVILLE   MOSUNNY   81  59  47 W12       29.94R
TULLAHOMA      MOSUNNY   79  57  47 SW9       29.94S
WINCHESTER     SUNNY     81  59  47 W10       29.94R
MCMINNVILLE    SUNNY     81  59  47 W10       29.93R
COLUMBIA       SUNNY     82  54  36 W5        29.92R
SHELBYVILLE    SUNNY     84  54  34 W9        29.93R
$$

TNZ017-018-042-046-047-290000-
NORTHEAST TENNESSEE

CITY           SKY/WX    TMP DP  RH WIND       PRES   REMARKS
TRI CITIES     MOSUNNY   78  54  43 W9        29.89R
$$

TNZ012-013-036-069-073-074-290000-
CENTRAL EAST TENNESSEE

CITY           SKY/WX    TMP DP  RH WIND       PRES   REMARKS
KNOXVILLE      MOSUNNY   80  57  45 SW8       29.89S
OAK RIDGE      SUNNY     80  54  40 VRB6      29.90S
GATLINBURG     CLEAR     81  54  39 W10       29.89S
MORRISTOWN     CLEAR     79  54  41 W12       29.89S
$$

TNZ083-085-099-290000-
SOUTHEAST TENNESSEE

CITY           SKY/WX    TMP DP  RH WIND       PRES   REMARKS
CHATTANOOGA    MOSUNNY   83  54  36 W8        29.91S
$$

SKY/WX REPORTED AS FAIR MEANS FEW OR NO CLOUDS BELOW
12 THOUSAND FEET.




USA.gov is the U.S. government's official web portal to all federal, state and local government web resources and services.